Time,TemperatureF,DewpointF,PressureIn,WindDirection,WindDirectionDegrees,WindSpeedMPH,WindSpeedGustMPH,Humidity,HourlyPrecipIn,Conditions,Clouds,dailyrainin,SolarRadiationWatts/m^2,SoftwareType,DateUTC
2013-08-26 00:00:00,73.0,63.0,-100.00,SSW,202,3.0,-999.0,69,-99.99,,,-99.99,0.000000,,2013-08-26 04:00:00,
2013-08-26 00:44:00,73.0,63.0,-100.00,SSW,202,3.0,-999.0,69,-99.99,,,-99.99,0.000000,,2013-08-26 04:44:00,
2013-08-26 00:53:00,73.0,63.0,-100.00,SSW,202,3.0,-999.0,69,-99.99,,,-99.99,0.000000,,2013-08-26 04:53:00,
2013-08-26 01:00:00,73.0,62.0,-100.00,SW,225,2.0,-999.0,68,-99.99,,,-99.99,0.000000,,2013-08-26 05:00:00,
2013-08-26 01:44:00,73.0,62.0,-100.00,SW,225,2.0,-999.0,68,-99.99,,,-99.99,0.000000,,2013-08-26 05:44:00,
2013-08-26 01:52:00,73.0,62.0,-100.00,SW,225,2.0,-999.0,68,-99.99,,,-99.99,0.000000,,2013-08-26 05:52:00,
2013-08-26 02:00:00,72.0,62.0,-100.00,SW,225,2.0,-999.0,69,-99.99,,,-99.99,0.000000,,2013-08-26 06:00:00,
2013-08-26 02:42:00,72.0,62.0,-100.00,SW,225,2.0,-999.0,69,-99.99,,,-99.99,0.000000,,2013-08-26 06:42:00,
2013-08-26 02:52:00,72.0,62.0,-100.00,SW,225,2.0,-999.0,69,-99.99,,,-99.99,0.000000,,2013-08-26 06:52:00,
2013-08-26 03:00:00,71.0,61.0,-100.00,SW,225,2.0,-999.0,71,-99.99,,,-99.99,0.000000,,2013-08-26 07:00:00,
2013-08-26 03:42:00,71.0,61.0,-100.00,SW,225,2.0,-999.0,71,-99.99,,,-99.99,0.000000,,2013-08-26 07:42:00,
2013-08-26 03:52:00,71.0,61.0,-100.00,SW,225,2.0,-999.0,71,-99.99,,,-99.99,0.000000,,2013-08-26 07:52:00,
2013-08-26 04:00:00,71.0,61.0,-100.00,SW,225,1.0,-999.0,72,-99.99,,,-99.99,0.000000,,2013-08-26 08:00:00,
2013-08-26 04:42:00,71.0,61.0,-100.00,SW,225,1.0,-999.0,72,-99.99,,,-99.99,0.000000,,2013-08-26 08:42:00,
2013-08-26 04:52:00,71.0,61.0,-100.00,SW,225,1.0,-999.0,72,-99.99,,,-99.99,0.000000,,2013-08-26 08:52:00,
2013-08-26 05:00:00,70.0,61.0,-100.00,SW,225,1.0,-999.0,74,-99.99,,,-99.99,0.000000,,2013-08-26 09:00:00,
2013-08-26 05:44:00,70.0,61.0,-100.00,SW,225,1.0,-999.0,74,-99.99,,,-99.99,0.000000,,2013-08-26 09:44:00,
2013-08-26 05:54:00,70.0,61.0,-100.00,SW,225,1.0,-999.0,74,-99.99,,,-99.99,0.000000,,2013-08-26 09:54:00,
2013-08-26 06:00:00,70.0,61.0,-100.00,SW,225,2.0,-999.0,75,-99.99,,,-99.99,0.000000,,2013-08-26 10:00:00,
2013-08-26 06:42:00,70.0,61.0,-100.00,SW,225,2.0,-999.0,75,-99.99,,,-99.99,0.000000,,2013-08-26 10:42:00,
2013-08-26 06:52:00,70.0,61.0,-100.00,SW,225,2.0,-999.0,75,-99.99,,,-99.99,0.000000,,2013-08-26 10:52:00,
2013-08-26 07:00:00,69.0,61.0,-100.00,SW,225,1.0,-999.0,77,-99.99,,,-99.99,0.000000,,2013-08-26 11:00:00,
2013-08-26 07:42:00,69.0,61.0,-100.00,SW,225,1.0,-999.0,77,-99.99,,,-99.99,0.000000,,2013-08-26 11:42:00,
2013-08-26 07:52:00,69.0,61.0,-100.00,SW,225,1.0,-999.0,77,-99.99,,,-99.99,0.000000,,2013-08-26 11:52:00,
2013-08-26 08:00:00,68.0,62.0,-100.00,SW,225,1.0,-999.0,78,-99.99,,,-99.99,31.320000,,2013-08-26 12:00:00,
2013-08-26 08:42:00,68.0,62.0,-100.00,SW,225,1.0,-999.0,78,-99.99,,,-99.99,31.320000,,2013-08-26 12:42:00,
2013-08-26 08:52:00,68.0,62.0,-100.00,SW,225,1.0,-999.0,78,-99.99,,,-99.99,31.320000,,2013-08-26 12:52:00,
2013-08-26 09:00:00,71.0,62.0,-100.00,SW,225,4.0,-999.0,73,-99.99,,,-99.99,177.479996,,2013-08-26 13:00:00,
2013-08-26 09:42:00,71.0,62.0,-100.00,SW,225,4.0,-999.0,73,-99.99,,,-99.99,177.479996,,2013-08-26 13:42:00,
2013-08-26 09:52:00,71.0,62.0,-100.00,SW,225,4.0,-999.0,73,-99.99,,,-99.99,177.479996,,2013-08-26 13:52:00,
2013-08-26 10:00:00,73.0,63.0,-100.00,WSW,247,5.0,-999.0,70,-99.99,,,-99.99,193.720001,,2013-08-26 14:00:00,
2013-08-26 10:42:00,73.0,63.0,-100.00,WSW,247,5.0,-999.0,70,-99.99,,,-99.99,193.720001,,2013-08-26 14:42:00,
2013-08-26 10:52:00,73.0,63.0,-100.00,WSW,247,5.0,-999.0,70,-99.99,,,-99.99,193.720001,,2013-08-26 14:52:00,
2013-08-26 11:00:00,74.0,63.0,-100.00,West,270,3.0,-999.0,68,-99.99,,,-99.99,180.960007,,2013-08-26 15:00:00,
2013-08-26 11:47:00,74.0,63.0,-100.00,West,270,3.0,-999.0,68,-99.99,,,-99.99,180.960007,,2013-08-26 15:47:00,
2013-08-26 11:59:00,74.0,63.0,-100.00,West,270,3.0,-999.0,68,-99.99,,,-99.99,180.960007,,2013-08-26 15:59:00,
2013-08-26 12:00:00,77.0,64.0,-100.00,West,270,5.0,-999.0,65,-99.99,,,-99.99,323.640015,,2013-08-26 16:00:00,
2013-08-26 12:48:00,77.0,64.0,-100.00,West,270,5.0,-999.0,65,-99.99,,,-99.99,323.640015,,2013-08-26 16:48:00,
2013-08-26 12:59:00,77.0,64.0,-100.00,West,270,5.0,-999.0,65,-99.99,,,-99.99,323.640015,,2013-08-26 16:59:00,
2013-08-26 13:00:00,77.0,65.0,-100.00,WSW,247,5.0,-999.0,66,-99.99,,,-99.99,273.760010,,2013-08-26 17:00:00,
2013-08-26 13:43:00,77.0,65.0,-100.00,WSW,247,5.0,-999.0,66,-99.99,,,-99.99,273.760010,,2013-08-26 17:43:00,
2013-08-26 13:53:00,77.0,65.0,-100.00,WSW,247,5.0,-999.0,66,-99.99,,,-99.99,273.760010,,2013-08-26 17:53:00,
2013-08-26 14:00:00,78.0,65.0,-100.00,WSW,247,5.0,-999.0,65,-99.99,,,-99.99,359.600006,,2013-08-26 18:00:00,
2013-08-26 14:42:00,78.0,65.0,-100.00,WSW,247,5.0,-999.0,65,-99.99,,,-99.99,359.600006,,2013-08-26 18:42:00,
2013-08-26 14:52:00,78.0,65.0,-100.00,WSW,247,5.0,-999.0,65,-99.99,,,-99.99,359.600006,,2013-08-26 18:52:00,
2013-08-26 15:00:00,78.0,66.0,-100.00,West,270,6.0,-999.0,66,-99.99,,,-99.99,473.279999,,2013-08-26 19:00:00,
2013-08-26 15:42:00,78.0,66.0,-100.00,West,270,6.0,-999.0,66,-99.99,,,-99.99,473.279999,,2013-08-26 19:42:00,
2013-08-26 16:00:00,80.0,67.0,-100.00,West,270,5.0,-999.0,64,-99.99,,,-99.99,527.799988,,2013-08-26 20:00:00,
2013-08-26 16:43:00,80.0,67.0,-100.00,West,270,5.0,-999.0,64,-99.99,,,-99.99,527.799988,,2013-08-26 20:43:00,
2013-08-26 16:52:00,80.0,67.0,-100.00,West,270,5.0,-999.0,64,-99.99,,,-99.99,527.799988,,2013-08-26 20:52:00,
2013-08-26 17:00:00,81.0,66.0,-100.00,WSW,247,5.0,-999.0,60,-99.99,,,-99.99,515.039978,,2013-08-26 21:00:00,
2013-08-26 17:44:00,81.0,66.0,-100.00,WSW,247,5.0,-999.0,60,-99.99,,,-99.99,515.039978,,2013-08-26 21:44:00,
2013-08-26 17:55:00,81.0,66.0,-100.00,WSW,247,5.0,-999.0,60,-99.99,,,-99.99,515.039978,,2013-08-26 21:55:00,
2013-08-26 18:00:00,81.0,66.0,-100.00,WSW,247,5.0,-999.0,60,-99.99,,,-99.99,380.480011,,2013-08-26 22:00:00,
2013-08-26 18:42:00,81.0,66.0,-100.00,WSW,247,5.0,-999.0,60,-99.99,,,-99.99,380.480011,,2013-08-26 22:42:00,
2013-08-26 18:53:00,81.0,66.0,-100.00,WSW,247,5.0,-999.0,60,-99.99,,,-99.99,380.480011,,2013-08-26 22:53:00,
2013-08-26 19:00:00,81.0,66.0,-100.00,WSW,247,5.0,-999.0,61,-99.99,,,-99.99,258.679993,,2013-08-26 23:00:00,
2013-08-26 19:42:00,81.0,66.0,-100.00,WSW,247,5.0,-999.0,61,-99.99,,,-99.99,258.679993,,2013-08-26 23:42:00,
2013-08-26 19:52:00,81.0,66.0,-100.00,WSW,247,5.0,-999.0,61,-99.99,,,-99.99,258.679993,,2013-08-26 23:52:00,
2013-08-26 20:00:00,79.0,66.0,-100.00,WSW,247,1.0,-999.0,65,-99.99,,,-99.99,67.279999,,2013-08-27 00:00:00,
2013-08-26 20:42:00,79.0,66.0,-100.00,WSW,247,1.0,-999.0,65,-99.99,,,-99.99,67.279999,,2013-08-27 00:42:00,
2013-08-26 20:52:00,79.0,66.0,-100.00,WSW,247,1.0,-999.0,65,-99.99,,,-99.99,67.279999,,2013-08-27 00:52:00,
2013-08-26 21:00:00,75.0,68.0,-100.00,SSW,202,0.0,-999.0,78,-99.99,,,-99.99,2.320000,,2013-08-27 01:00:00,
2013-08-26 21:42:00,75.0,68.0,-100.00,SSW,202,0.0,-999.0,78,-99.99,,,-99.99,2.320000,,2013-08-27 01:42:00,
2013-08-26 21:52:00,75.0,68.0,-100.00,SSW,202,0.0,-999.0,78,-99.99,,,-99.99,2.320000,,2013-08-27 01:52:00,
2013-08-26 22:00:00,73.0,68.0,-100.00,SSW,202,0.0,-999.0,83,-99.99,,,-99.99,0.000000,,2013-08-27 02:00:00,
2013-08-26 22:43:00,73.0,68.0,-100.00,SSW,202,0.0,-999.0,83,-99.99,,,-99.99,0.000000,,2013-08-27 02:43:00,
2013-08-26 22:52:00,73.0,68.0,-100.00,SSW,202,0.0,-999.0,83,-99.99,,,-99.99,0.000000,,2013-08-27 02:52:00,
2013-08-26 23:00:00,74.0,68.0,-100.00,SW,225,1.0,-999.0,80,-99.99,,,-99.99,0.000000,,2013-08-27 03:00:00,
2013-08-26 23:45:00,74.0,68.0,-100.00,SW,225,1.0,-999.0,80,-99.99,,,-99.99,0.000000,,2013-08-27 03:45:00,
2013-08-26 23:58:00,74.0,68.0,-100.00,SW,225,1.0,-999.0,80,-99.99,,,-99.99,0.000000,,2013-08-27 03:58:00,